AJISAI (EGS)

Last updated on Fri Sep 19 2025 00:02:14 GMT+0000 (Coordinated Universal Time)

1 16908U 86061A 25261.28161653 -.00000078 00000+0 13657-3 0 9993 2 16908 50.0077 263.4997 0011293 208.3039 155.0101 12.44513388446530
UTC large
Height (km)
Speed (km/s)
/
Latitude / Longitude
Inclination (degrees)
Orbital Period (minutes)
Azimuth
Elevation
Range (km)
Doppler Factor

Next 0 passes for location: London (51.5072 / 0.1276)

Sorry there are no passes over London.